FW9017 Weather Reports


time (UTC)temp
C
wind
direction
speed
KPH
gust
KPH
rain 1hr
cm
rain 24hr
cm
rain mn
cm
humidity
%
barometer
mb
20260510224559 17 0 0.0 1.6 0.00 0.33 0.00 78 1013.3
20260510223057 17 0 0.0 1.6 0.00 0.33 0.00 81 1013.3
20260510221604 17 286 0.0 1.6 0.00 0.33 0.00 79 1013.2
20260510214559 17 0 0.0 1.6 0.00 0.43 0.00 81 1013.0
20260510213100 17 286 0.0 3.2 0.00 0.43 0.00 84 1013.2
20260510211557 17 0 0.0 3.2 0.00 0.43 0.00 85 1012.8
20260510210059 17 0 0.0 1.6 0.00 0.43 0.00 83 1012.7
20260510204607 17 0 0.0 8.0 0.00 0.61 0.00 81 1012.8
20260510203055 18 217 3.2 14.5 0.00 0.61 0.00 73 1012.8
20260510201605 20 277 0.0 4.8 0.00 0.61 0.00 77 1012.2
20260510200056 20 0 0.0 3.2 0.00 0.61 0.00 77 1012.1
20260510194556 20 187 0.0 4.8 0.00 1.30 0.00 76 1012.2
20260510193104 20 205 1.6 4.8 0.00 1.30 0.00 73 1012.3
20260510191601 21 186 0.0 4.8 0.00 1.30 0.00 72 1012.2
20260510184556 21 0 1.6 4.8 0.00 1.47 0.00 72 1012.2
20260510183057 21 119 1.6 11.3 0.00 1.47 0.00 70 1012.3
20260510181557 21 294 0.0 8.0 0.00 1.47 0.00 68 1012.2
20260510180055 21 194 1.6 4.8 0.00 1.47 0.00 69 1012.4
20260510174558 22 211 1.6 8.0 0.00 1.47 0.00 68 1012.3
20260510173112 21 92 0.0 6.4 0.00 1.47 0.00 69 1012.2
20260510171556 21 61 1.6 9.7 0.00 1.47 0.00 74 1012.3
20260510170056 20 70 1.6 6.4 0.00 1.47 0.00 74 1012.4
20260510164611 20 144 3.2 6.4 0.00 1.47 0.00 75 1012.6
20260510163102 20 0 1.6 11.3 0.00 1.47 0.00 76 1012.7
20260510161557 20 128 3.2 11.3 0.00 1.47 0.00 77 1012.9
20260510160058 20 123 1.6 9.7 0.00 1.47 0.00 77 1012.9
20260510154557 18 223 1.6 8.0 0.00 1.47 0.00 79 1013.1
20260510153059 18 243 1.6 11.3 0.00 1.47 0.00 80 1013.4
20260510151605 17 228 0.0 6.4 0.00 1.47 0.00 84 1013.5
20260510144558 16 134 1.6 6.4 0.00 1.47 0.00 86 1013.3
20260510143059 15 311 0.0 4.8 0.00 1.47 0.00 91 1013.3
20260510141556 13 278 3.2 6.4 0.00 1.47 0.00 93 1013.4
20260510140056 13 62 0.0 3.2 0.00 1.47 0.00 96 1013.3
20260510134557 12 0 0.0 3.2 0.00 1.47 0.00 98 1013.1
20260510133055 12 0 0.0 3.2 0.00 1.47 0.00 98 1013.2
20260510131554 12 0 0.0 1.6 0.00 1.47 0.00 99 1013.3
20260510130056 12 101 0.0 3.2 0.00 1.47 0.00 99 1013.3
20260510124557 12 84 0.0 3.2 0.00 1.47 0.00 99 1013.3
20260510123058 11 84 0.0 3.2 0.00 1.47 0.00 99 1013.2
20260510121557 11 0 0.0 3.2 0.00 1.47 0.00 99 1013.0
20260510120055 11 84 1.6 4.8 0.00 1.47 0.00 99 1013.0
20260510114604 11 131 0.0 1.6 0.00 1.47 0.00 99 1012.8
20260510113057 11 0 0.0 3.2 0.00 1.47 0.00 99 1012.4
20260510111557 11 0 0.0 0.0 0.00 1.47 0.00 99 1012.5
20260510110056 10 0 0.0 1.6 0.00 1.47 0.00 99 1012.4
20260510104610 10 0 0.0 3.2 0.00 1.47 0.00 99 1012.3
20260510103100 10 0 0.0 0.0 0.00 1.47 0.00 99 1012.1
20260510101557 10 0 0.0 1.6 0.00 1.47 0.00 99 1011.9
20260510100059 10 0 0.0 1.6 0.00 1.47 0.00 99 1012.4
20260510094600 10 0 0.0 1.6 0.00 1.47 0.00 98 1012.5
20260510093058 10 0 0.0 0.0 0.00 1.47 0.00 99 1012.3
20260510091557 10 0 0.0 1.6 0.00 1.47 0.00 98 1012.4
20260510090104 11 0 0.0 0.0 0.00 1.47 0.00 99 1012.7
20260510084600 11 0 1.6 3.2 0.00 1.52 0.00 99 1012.7
20260510083102 11 0 0.0 1.6 0.00 1.52 0.00 99 1012.4
20260510081559 11 131 0.0 0.0 0.00 1.52 0.00 99 1012.4
20260510080059 11 0 0.0 3.2 0.00 1.52 0.00 99 1012.1
20260510074617 11 0 0.0 0.0 0.00 1.52 0.00 99 1012.0
20260510073056 11 0 0.0 0.0 0.00 1.52 0.00 99 1011.9
20260510071601 11 0 0.0 0.0 0.00 1.52 0.00 99 1011.9
20260510070054 11 0 0.0 1.6 0.00 1.52 0.00 98 1011.8
20260510064611 11 0 0.0 1.6 0.00 1.52 0.00 99 1012.0
20260510063102 11 0 0.0 1.6 0.00 1.52 0.00 99 1011.7
20260510061555 11 0 0.0 1.6 0.00 1.52 0.00 99 1011.4
20260510060058 11 0 0.0 1.6 0.00 1.52 0.00 99 1011.4
20260510054555 11 0 0.0 1.6 0.00 1.52 0.00 99 1011.6
20260510053055 11 0 0.0 0.0 0.00 1.52 0.00 98 1011.6
20260510051603 11 0 0.0 0.0 0.00 1.52 0.00 98 1011.7
20260510050054 11 0 0.0 0.0 0.00 1.52 0.00 98 1011.6
20260510044557 11 0 0.0 0.0 0.00 1.52 0.00 98 1011.8
20260510043102 11 0 0.0 0.0 0.00 1.52 0.00 98 1011.7
20260510041611 11 0 0.0 0.0 0.00 1.52 0.00 98 1011.7
20260510040101 11 0 0.0 0.0 0.00 1.52 0.00 98 1011.5
20260510034557 11 0 0.0 1.6 0.00 1.52 1.52 98 1011.6
20260510033056 11 0 0.0 0.0 0.00 1.52 1.52 98 1011.6
20260510031601 11 0 0.0 0.0 0.00 1.52 1.52 98 1011.8
20260510030059 11 0 0.0 1.6 0.00 1.52 1.52 98 1011.7
20260510024602 11 0 0.0 1.6 0.00 1.52 1.52 98 1011.7
20260510023056 11 0 0.0 1.6 0.00 1.52 1.52 98 1011.6
20260510021559 11 0 0.0 0.0 0.00 1.52 1.52 98 1011.7
20260510020058 11 0 0.0 3.2 0.00 1.52 1.52 98 1011.8
20260510014556 11 0 0.0 0.0 0.00 1.52 1.52 98 1011.8
20260510013106 11 0 0.0 1.6 0.00 1.52 1.52 98 1011.6
20260510011559 11 0 0.0 1.6 0.00 1.52 1.52 98 1011.6
20260510010107 11 0 0.0 1.6 0.00 1.52 1.52 98 1011.4
20260510004603 11 0 0.0 3.2 0.00 1.52 1.52 98 1011.3
20260510003056 11 0 0.0 1.6 0.00 1.52 1.52 98 1011.1
20260510001555 11 0 0.0 1.6 0.03 1.52 1.52 98 1011.0
20260510000115 11 0 0.0 1.6 0.08 1.52 1.52 98 1011.1
20260509234604 11 0 0.0 1.6 0.15 1.52 1.52 98 1011.1
20260509233056 11 0 0.0 3.2 0.20 1.52 1.52 98 1011.0
20260509231557 11 0 0.0 1.6 0.23 1.47 1.47 98 1011.2
20260509230055 11 0 0.0 3.2 0.25 1.45 1.45 98 1011.6